Theta_e
331 332 334 330 329 330 325 318 302 306 305 300 298 299 298 305 302 301 301 301 300 305 305 304 304 306 306 305 307 308 305 307 309 302 303 311 314 312 313 314 315 317 319 321 325 330 334 332 333 334 335 335 336 337 337 338 339 340 341 342 343 343 344 345 344 345 345 345 346 346 346 346 347 347 348 349 349 349 348 347 347 347 347 348 348 349 348 348 348 348 348 348 348 348 348 348 347
329 331 330 331 327 325 317 312 306 301 302 298 299 300 301 303 302 301 301 301 305 305 306 306 305 307 306 306 308 308 307 308 307 309 309 313 311 311 312 312 313 314 317 321 324 328 330 331 330 332 333 334 334 335 336 336 337 338 339 340 339 340 341 342 343 344 344 344 344 345 346 346 345 346 347 347 348 347 347 347 346 347 347 347 347 348 348 348 346 348 348 348 347 347 348 349 349
329 329 328 327 323 321 317 311 301 301 299 296 299 300 301 301 301 303 304 304 305 306 307 306 306 305 304 305 303 304 304 308 309 310 310 312 309 309 311 311 312 313 317 320 323 326 328 328 329 330 332 333 333 333 334 335 335 336 336 337 337 337 339 341 341 341 342 342 342 342 344 344 345 345 345 345 346 345 345 345 345 345 346 346 347 348 348 347 347 347 347 347 347 347 346 348 348
330 330 329 326 318 318 312 307 304 301 299 299 298 301 300 302 303 304 304 306 306 306 305 303 303 304 304 302 304 305 306 307 311 310 308 309 311 309 309 310 310 313 317 319 321 324 325 327 328 329 330 332 332 332 332 333 334 334 334 334 334 335 336 337 337 338 338 339 340 340 341 341 341 341 342 341 339 340 341 343 343 344 345 345 345 346 346 347 347 346 346 346 346 346 346 346 346
328 325 328 323 320 311 310 305 303 302 297 299 298 302 302 304 304 303 302 306 305 304 304 304 304 303 304 304 305 305 307 309 309 310 311 312 309 309 308 310 310 312 314 315 319 322 323 324 326 328 329 330 330 331 331 331 331 331 331 331 332 333 334 334 334 334 334 335 336 336 336 337 336 336 336 335 335 336 337 338 340 342 343 344 344 345 346 347 346 346 346 346 346 346 345 345 345
325 321 323 323 314 309 306 301 300 299 303 303 300 301 303 304 304 303 303 304 304 302 301 303 303 302 302 304 305 305 309 307 311 310 311 309 309 308 307 309 308 309 311 314 317 320 322 322 325 325 327 328 329 329 329 329 329 329 329 329 330 331 331 331 330 330 330 330 331 332 332 332 332 332 331 331 331 332 333 334 336 339 340 340 341 341 343 344 346 346 346 346 346 346 345 344 345
322 319 316 313 309 310 303 301 300 301 302 301 302 302 304 304 304 304 302 301 302 302 303 302 302 303 302 304 303 305 306 306 309 310 312 310 309 307 307 305 307 306 308 310 314 318 319 320 322 324 325 325 326 326 327 327 326 326 326 326 327 328 328 328 326 326 326 327 328 328 328 329 329 328 328 327 328 329 330 332 333 335 335 335 335 336 338 340 341 343 344 345 345 345 343 344 344
321 318 315 309 306 304 301 302 301 302 301 300 301 302 304 303 304 304 302 302 301 300 302 302 303 302 302 303 304 303 306 306 310 310 308 306 308 306 306 305 304 304 305 308 312 315 316 317 320 321 322 324 324 324 325 325 325 325 324 324 324 325 326 325 324 323 323 323 324 324 324 324 325 325 324 324 325 326 328 329 330 330 330 330 331 331 333 336 338 340 340 340 341 342 342 343 343
317 315 311 309 303 303 301 300 302 300 301 300 301 302 306 304 305 304 302 304 302 303 301 302 303 299 302 301 304 304 306 308 308 308 307 306 306 305 305 305 303 305 305 305 308 311 315 313 316 319 319 321 322 323 323 323 323 323 323 323 322 323 323 323 322 321 321 321 322 322 323 322 322 322 322 322 322 324 325 326 326 327 327 327 328 328 329 332 334 335 335 335 334 335 336 337 339
313 312 308 307 306 300 300 301 298 301 302 302 302 301 302 302 303 305 304 302 303 302 303 304 303 301 301 302 303 303 306 308 307 305 305 306 305 305 304 304 306 305 304 304 306 307 308 309 311 314 316 318 319 320 321 321 321 321 321 321 320 320 321 321 320 319 319 319 319 319 319 320 320 321 321 321 321 322 324 324 324 324 324 325 325 325 326 328 330 331 331 331 330 329 329 329 333
309 310 310 305 301 299 299 300 301 301 300 301 301 302 302 302 303 302 304 304 303 302 300 301 299 300 301 302 305 304 307 306 304 302 304 304 305 304 302 305 306 305 303 306 305 305 305 306 307 309 312 314 315 317 317 318 318 318 318 318 318 317 318 318 318 316 316 316 316 317 317 317 317 318 318 318 318 319 321 321 322 321 322 322 323 323 323 324 326 327 328 327 327 327 326 325 326
306 308 308 303 301 301 301 300 302 302 300 301 301 302 301 302 302 301 302 301 301 301 301 301 302 304 300 301 304 303 304 304 305 304 304 304 302 303 303 302 304 304 305 304 304 304 304 306 306 305 306 308 311 313 314 315 316 316 316 316 315 315 316 316 316 316 314 314 314 314 314 315 315 316 316 316 316 317 318 318 319 319 319 319 320 320 321 322 323 324 324 324 323 323 323 322 322
309 309 306 302 301 300 301 298 301 300 301 300 302 300 302 301 301 303 303 303 302 301 301 303 303 303 301 301 302 300 302 304 305 304 303 301 302 302 303 302 303 303 303 304 304 304 305 303 304 304 304 304 306 308 310 311 312 313 313 313 313 313 312 313 313 313 312 311 311 310 310 311 311 312 313 313 314 314 315 316 316 317 317 318 318 318 319 319 320 320 320 320 320 320 319 319 319
309 310 307 302 298 300 299 301 299 299 300 303 302 299 301 301 302 303 303 300 301 301 302 305 302 303 301 302 300 300 302 305 303 303 301 301 301 301 302 302 304 302 304 303 302 302 303 303 303 304 304 304 305 305 305 307 309 310 311 310 311 310 310 310 309 310 309 309 308 307 307 307 307 308 309 310 311 311 312 312 313 315 315 316 316 316 317 318 318 318 318 318 318 317 317 316 315
310 307 307 304 300 298 300 298 300 299 300 302 300 299 298 301 299 301 301 301 303 302 299 303 305 301 301 300 303 302 303 304 302 302 302 301 301 301 302 302 302 303 302 301 302 302 301 302 302 303 304 304 304 304 305 304 305 306 308 308 308 308 308 307 306 306 306 306 305 304 305 304 304 305 305 306 307 307 308 308 310 312 313 314 314 314 316 316 316 316 316 316 316 316 315 314 314
312 308 306 302 299 299 300 299 297 298 300 302 298 299 299 298 299 299 301 301 302 300 301 301 302 302 301 303 300 302 304 303 302 301 300 300 300 300 300 300 299 300 301 301 300 302 302 302 302 302 302 303 303 303 304 304 302 303 304 305 306 305 305 305 304 304 303 303 303 303 303 304 304 305 304 305 304 305 304 305 306 309 310 310 311 311 313 313 314 315 315 315 315 314 313 312 312
310 311 301 301 298 297 301 299 298 298 303 301 297 298 299 299 298 298 296 298 299 300 298 302 301 300 299 299 299 299 303 302 301 299 299 298 298 297 298 299 299 299 300 301 300 300 302 301 301 301 302 302 302 302 303 303 302 302 302 302 302 303 303 302 302 302 302 302 302 303 305 304 304 305 304 304 304 303 302 302 304 306 307 307 308 308 309 310 311 312 312 313 313 312 310 310 310
311 304 302 299 301 299 303 301 301 302 301 301 298 299 301 300 297 298 297 297 299 297 298 301 300 298 299 298 298 300 301 300 299 297 297 297 297 296 296 297 298 297 298 298 299 300 299 301 301 301 301 302 302 302 303 303 303 301 303 303 303 302 301 301 301 302 302 303 303 303 303 302 303 303 302 302 303 303 303 301 302 304 305 305 305 306 306 308 309 309 310 310 310 310 308 310 310
306 302 301 299 302 303 303 303 303 300 302 301 301 299 300 301 301 298 298 299 297 297 298 299 299 301 299 296 298 298 299 299 298 297 297 297 297 296 296 297 297 297 297 298 298 298 300 300 300 300 301 301 302 302 303 302 302 302 302 302 302 301 301 301 301 301 301 302 302 302 301 301 302 302 301 301 301 301 302 301 302 303 303 303 303 305 305 306 307 307 308 308 308 307 308 309 308
304 303 300 301 305 304 301 301 302 302 301 300 299 299 297 300 300 299 298 301 297 298 300 298 298 300 300 297 297 298 298 298 298 297 297 297 298 297 297 297 297 297 297 298 298 299 299 299 301 301 301 301 302 301 302 301 301 302 302 302 302 302 302 301 301 301 301 301 302 301 301 301 302 302 303 302 303 303 303 303 301 301 302 302 302 303 303 304 305 306 306 306 307 308 308 307 307
304 301 301 303 301 301 303 301 302 301 299 300 300 296 296 299 299 299 299 298 299 300 303 303 301 302 303 297 297 298 298 297 298 298 297 298 298 298 298 297 297 297 298 299 298 297 298 299 299 300 301 301 301 300 301 301 301 301 301 301 302 301 301 301 301 301 301 301 301 301 301 301 301 301 302 302 302 302 303 303 303 302 302 303 301 303 303 303 304 305 305 305 306 306 306 306 307
303 302 301 301 300 300 302 301 299 299 296 299 297 297 299 299 297 298 299 298 300 304 305 304 305 306 303 297 297 297 297 297 297 297 297 297 297 297 297 298 298 298 298 296 297 297 298 298 300 299 300 300 301 301 301 299 301 300 301 301 301 301 302 301 301 301 300 300 300 300 300 300 300 300 301 301 301 301 301 300 301 301 301 302 301 301 301 302 302 303 303 304 304 304 305 306 306
301 301 299 299 301 300 300 299 296 297 297 298 297 300 298 298 299 299 299 300 304 301 301 303 304 305 303 300 298 297 297 297 297 297 297 297 297 298 296 297 296 296 296 297 297 296 297 297 299 300 299 300 300 300 300 300 300 300 301 300 302 300 301 301 300 300 300 300 300 299 299 299 299 299 299 299 299 300 299 299 299 300 300 300 300 300 301 301 301 301 302 302 303 304 304 305 305
299 301 299 300 299 299 300 299 295 297 298 298 298 297 298 298 297 299 297 301 304 301 298 297 297 299 301 298 298 297 297 297 297 298 298 298 298 297 297 296 296 297 297 297 297 296 297 297 297 298 299 299 299 299 299 299 299 300 300 299 301 298 300 299 299 299 300 299 299 298 298 299 298 298 298 298 298 299 298 299 299 298 299 299 299 299 299 299 299 300 301 302 302 303 303 304 304
300 299 299 299 296 299 300 297 296 296 297 296 295 297 299 299 299 294 296 301 302 303 299 297 297 298 298 299 297 298 298 298 298 298 298 298 299 298 298 297 296 297 297 296 297 296 297 297 296 296 298 297 298 298 298 298 298 299 299 299 298 298 299 299 299 299 299 298 298 298 298 298 298 297 297 297 298 298 298 298 297 297 298 298 298 297 298 297 298 298 299 299 300 301 301 302 303
300 300 299 299 299 300 298 297 297 296 298 296 296 297 299 297 297 296 299 302 303 304 301 298 297 297 297 298 298 297 297 298 298 297 297 298 298 297 297 296 296 295 297 296 296 296 297 297 296 296 297 297 298 298 298 298 298 298 298 298 298 298 298 298 298 298 298 297 297 297 297 297 297 296 296 296 296 296 296 297 297 296 296 297 296 296 297 296 296 297 298 298 299 299 300 301 301
299 299 299 299 300 297 298 297 297 294 297 296 297 299 299 294 296 298 302 296 297 300 299 296 296 297 297 298 298 298 298 298 298 298 297 296 296 296 296 296 295 295 296 296 296 297 297 296 296 296 297 299 298 297 298 297 297 297 298 298 298 298 298 298 298 298 297 297 296 296 297 296 296 296 295 295 295 295 296 296 295 296 295 296 295 295 296 296 296 296 297 296 297 298 298 300 300
298 297 297 297 297 297 297 295 296 296 298 296 298 297 297 295 296 297 301 294 296 298 298 296 295 297 298 297 297 298 297 299 298 297 295 294 294 295 295 295 295 295 296 296 296 297 296 296 296 296 296 297 297 297 297 297 297 297 297 297 297 297 297 297 297 297 296 296 296 296 296 295 296 295 295 295 295 295 294 294 295 295 294 295 295 295 294 295 296 296 297 297 297 298 298 298 300
296 296 297 298 299 299 298 297 297 295 297 295 297 295 293 295 295 300 300 294 295 296 297 296 295 296 298 297 296 296 296 297 297 296 296 296 296 295 295 296 295 295 296 297 296 297 295 296 295 295 295 297 296 295 296 296 296 296 297 297 297 297 297 297 296 296 296 296 296 296 295 295 295 295 294 294 294 294 294 294 294 294 294 294 294 294 294 295 295 295 296 296 296 297 297 297 299
295 297 296 297 298 298 297 295 294 295 297 295 296 293 298 296 299 303 297 296 294 295 296 297 296 295 296 296 295 295 296 295 295 295 296 296 296 295 295 296 296 296 296 296 296 295 295 297 297 296 296 296 296 295 295 295 295 296 296 296 295 296 296 296 295 296 295 295 296 295 295 294 294 294 294 294 294 293 293 293 293 293 293 293 293 294 293 294 294 294 294 294 295 295 295 296 296
296 295 295 296 295 296 295 296 294 296 295 294 296 293 296 300 301 303 299 297 295 297 298 298 297 295 294 294 294 294 295 295 295 295 296 297 296 295 296 295 295 296 296 296 295 295 295 296 296 294 296 296 295 295 295 295 295 295 295 295 295 296 296 295 295 295 295 295 295 294 294 294 293 293 293 293 292 292 292 292 292 292 292 292 292 293 292 293 293 293 293 293 294 294 294 295 295
296 294 295 295 293 297 296 296 295 297 294 295 297 293 295 300 302 302 297 295 295 296 298 299 298 296 295 294 293 294 294 294 294 295 295 295 295 294 295 295 295 295 295 295 295 296 294 295 295 295 295 295 295 295 295 295 294 294 295 295 295 295 295 295 294 295 295 294 294 294 294 293 293 293 293 292 292 292 291 291 291 292 292 291 292 292 292 292 292 292 293 293 292 292 293 293 294
295 294 295 295 295 296 295 295 293 293 295 295 296 294 297 298 299 295 292 294 294 295 297 298 298 297 295 294 294 293 293 293 293 293 293 294 294 294 294 294 294 295 295 295 295 295 294 294 294 295 294 294 294 293 294 294 294 294 293 294 293 294 294 294 294 294 294 294 293 293 293 293 292 292 292 292 291 291 291 291 291 291 291 291 291 291 291 292 291 292 292 293 293 291 292 293 293
296 294 293 298 293 295 293 294 292 293 294 294 295 292 295 298 300 296 291 295 294 295 297 298 298 298 297 296 294 293 293 293 292 292 293 293 293 293 293 294 294 294 295 295 295 294 293 294 294 294 294 294 293 293 293 294 293 293 293 293 293 293 293 293 293 293 293 293 293 292 293 292 292 292 291 291 291 291 291 291 291 291 290 290 290 291 290 291 292 291 291 292 292 291 291 292 292
296 294 293 294 294 292 294 294 293 292 291 292 294 293 294 297 298 300 299 295 296 297 297 298 299 298 297 296 295 293 293 293 293 294 294 293 293 292 292 293 293 294 294 294 294 294 294 294 294 294 293 293 293 293 294 294 293 293 293 293 293 292 293 292 292 292 292 292 292 292 292 292 291 291 291 291 290 290 290 290 290 290 290 290 290 290 290 291 291 291 290 290 292 291 290 291 291
295 295 295 294 292 294 293 295 292 293 292 292 293 291 294 296 296 298 299 299 296 297 298 298 299 299 298 297 296 294 293 293 295 296 295 294 293 292 291 292 293 293 293 292 293 293 293 293 293 293 292 292 292 292 293 293 292 292 292 292 292 292 292 291 292 291 292 291 292 291 291 291 291 290 290 290 290 290 289 290 290 290 290 289 289 289 289 290 289 289 290 289 289 290 291 291 291
295 296 294 294 294 295 297 293 291 290 290 291 292 293 293 294 296 297 298 299 297 296 296 297 298 298 298 297 296 295 294 294 297 296 295 293 292 292 291 291 291 291 291 291 292 292 293 292 293 292 292 292 292 291 292 292 292 292 291 291 291 292 291 292 291 292 291 291 291 291 291 290 291 290 290 290 289 289 289 289 289 289 290 289 289 289 289 289 289 289 288 289 288 288 289 291 291
294 295 294 293 295 291 295 292 288 291 290 291 293 292 292 293 295 296 297 297 296 298 298 298 298 299 298 298 298 296 295 296 296 294 294 293 291 291 290 290 290 289 290 290 291 291 292 292 292 292 292 291 292 292 292 292 293 292 292 292 291 291 290 290 290 291 291 291 290 290 290 290 290 289 289 289 288 288 288 288 289 289 289 289 289 289 289 288 288 288 288 287 289 287 287 290 290
292 294 294 291 293 295 295 291 289 290 289 290 292 290 291 293 295 297 297 297 298 299 299 299 300 300 300 300 299 297 295 295 294 293 293 291 291 290 289 289 289 290 290 289 291 291 291 291 292 292 292 291 292 292 292 292 291 291 291 290 290 290 290 290 290 290 290 290 290 290 290 290 289 289 289 289 288 288 288 288 288 288 288 288 288 288 288 288 288 288 287 286 286 288 288 290 290
293 291 291 291 295 291 292 290 288 289 290 291 291 288 290 293 295 296 297 297 298 299 299 300 301 299 300 300 300 297 296 295 293 292 291 290 290 289 288 287 288 289 289 288 289 290 290 291 292 292 291 292 292 291 291 292 291 291 290 290 290 289 289 289 290 289 289 289 289 290 290 289 289 288 288 288 288 288 287 287 287 288 288 288 288 287 287 287 288 287 287 286 286 284 286 287 290
293 294 294 293 294 293 291 291 289 290 289 287 289 290 292 294 294 295 295 293 292 294 295 296 298 300 301 302 300 298 297 296 294 292 291 289 289 288 288 288 288 287 288 288 289 289 289 290 292 292 291 291 291 291 291 291 290 289 289 289 288 288 288 288 288 288 289 289 288 289 289 289 288 288 288 287 287 287 287 287 287 287 287 287 287 287 287 287 287 287 286 286 286 284 284 286 287
293 293 293 295 295 292 292 290 290 290 291 289 289 287 289 296 295 294 296 293 293 293 293 295 297 298 298 297 297 297 298 297 296 293 292 290 289 289 288 287 286 287 288 288 289 289 289 290 291 291 291 291 290 290 291 290 289 289 288 287 286 287 287 287 287 288 288 288 288 289 288 288 288 287 287 287 287 287 286 287 287 287 287 287 287 287 286 286 286 286 286 286 285 285 284 284 284
291 293 295 294 293 292 290 289 289 287 287 290 290 286 284 292 292 293 294 294 295 296 294 296 299 302 300 298 297 296 296 296 296 295 293 291 289 288 288 287 287 286 288 289 288 289 289 291 291 290 290 290 290 290 290 290 289 289 288 288 288 288 287 288 289 288 287 287 287 287 287 288 288 287 287 286 286 286 286 286 286 286 286 286 286 286 286 286 286 286 286 285 285 285 285 283 284
291 290 288 290 290 289 290 289 290 289 289 290 289 291 285 285 291 294 295 294 295 296 298 300 301 301 301 300 297 297 297 296 295 294 293 292 290 289 287 287 287 287 288 288 288 288 288 289 289 289 290 290 290 290 289 289 288 288 288 287 287 287 287 287 288 287 287 286 286 286 287 286 287 286 286 286 286 286 285 285 286 286 286 286 285 285 285 285 286 286 286 285 285 285 284 283 283
292 286 289 290 290 291 289 290 289 288 285 285 288 291 285 285 290 294 294 292 293 294 296 298 300 302 301 301 298 297 298 297 296 294 293 292 290 289 289 287 287 287 287 287 288 288 288 288 288 289 289 289 289 289 288 288 288 288 288 287 286 287 287 287 287 286 286 286 285 285 285 286 286 286 286 285 285 285 285 285 285 285 285 285 285 285 285 285 285 284 284 284 284 284 284 284 283
288 287 288 287 288 288 289 288 288 287 284 282 286 289 284 285 290 288 288 291 293 295 297 299 300 302 303 300 298 297 297 296 296 295 294 293 292 290 289 289 287 286 287 288 288 288 287 288 287 287 287 288 288 287 287 287 287 287 286 286 286 286 286 286 286 285 285 285 284 285 285 285 285 285 285 285 285 285 284 285 284 284 284 284 284 284 284 284 284 284 284 284 284 283 284 284 283
288 290 292 290 289 288 287 287 287 286 281 284 289 289 288 283 291 291 288 291 293 296 298 299 301 302 300 299 298 298 295 295 293 293 293 293 292 290 288 287 286 286 286 287 287 287 287 287 287 286 287 287 286 286 286 286 286 286 286 286 286 285 286 285 284 284 284 284 283 284 284 284 284 284 284 284 284 284 284 284 284 284 284 284 283 284 283 283 284 284 284 284 283 283 283 283 283
290 290 290 291 288 286 286 285 286 282 282 288 290 290 289 281 288 292 295 294 296 297 297 298 300 301 302 301 298 296 294 293 292 291 291 291 289 289 288 287 286 285 285 286 286 287 286 286 287 286 286 286 285 285 285 285 285 285 285 285 285 285 284 283 283 283 283 283 283 282 283 283 283 283 283 283 283 284 283 283 283 283 283 283 283 283 283 283 283 283 283 283 282 283 283 283 282
290 290 290 286 286 285 283 282 279 280 282 284 282 287 285 284 289 294 293 294 296 296 297 299 301 302 303 300 297 294 292 291 290 289 289 289 288 287 286 286 285 285 284 285 286 286 286 286 286 286 285 285 285 284 284 284 284 284 284 284 284 284 284 283 283 282 283 282 282 282 282 281 282 282 282 282 283 283 282 282 282 282 282 283 283 283 283 283 283 282 282 282 282 282 282 282 281
288 288 288 286 282 281 278 283 283 282 286 284 284 286 282 289 291 295 295 297 298 298 298 298 299 301 303 299 294 291 289 289 289 289 289 288 288 287 286 286 285 284 284 285 285 286 285 286 286 286 284 284 284 284 284 283 283 284 284 283 283 283 282 282 282 282 282 282 282 281 281 281 281 281 281 281 282 282 281 282 282 282 282 282 282 282 282 282 282 281 282 281 281 282 282 282 281
288 293 291 288 287 283 279 282 280 282 285 283 284 282 283 284 289 296 297 298 299 299 299 300 298 297 297 291 289 289 289 288 289 289 288 288 287 287 286 285 285 285 285 285 285 285 285 285 285 285 284 284 283 283 283 283 283 283 283 283 282 282 281 282 282 282 281 281 281 280 280 280 280 280 280 281 281 281 281 281 281 281 281 281 281 281 282 282 282 281 281 281 281 281 281 281 281
289 291 292 287 286 290 284 285 284 282 283 283 280 283 289 289 293 294 291 293 294 297 298 298 296 295 295 291 290 289 289 289 288 288 288 288 288 287 286 285 285 285 285 285 285 285 285 285 285 285 284 283 283 283 283 283 283 283 282 282 281 281 281 281 280 280 280 280 280 279 279 279 279 279 280 280 280 280 280 280 280 280 280 280 281 281 280 280 281 280 280 281 280 282 281 281 280
288 288 285 289 292 291 287 284 281 279 281 280 287 285 289 293 293 292 294 292 293 294 294 295 295 296 295 293 292 292 291 290 288 288 288 288 287 287 286 285 285 285 285 284 285 285 285 285 284 285 284 283 283 283 283 283 283 282 281 281 280 280 279 279 279 279 279 279 278 278 278 279 279 279 279 279 279 279 279 279 279 279 280 280 280 280 280 280 280 280 279 279 279 280 280 280 280
288 284 288 289 293 292 287 282 284 282 279 282 285 283 286 287 284 291 293 291 292 293 293 293 293 293 293 294 294 293 293 291 289 288 288 288 287 286 286 286 285 285 285 285 285 285 285 285 285 284 283 282 282 282 282 282 281 280 280 279 279 279 279 279 278 278 278 277 277 278 278 278 278 279 278 278 278 278 278 278 278 278 278 278 278 279 279 279 279 279 279 279 279 279 279 279 279
289 287 294 288 283 282 286 284 277 278 277 280 284 286 286 288 288 290 289 290 291 292 294 293 292 292 292 293 293 293 292 291 289 288 287 287 286 286 286 285 285 285 285 285 285 285 285 284 285 284 283 283 282 282 282 281 280 280 279 279 278 278 278 278 277 277 277 276 276 277 277 277 277 277 277 277 277 277 277 277 277 277 277 277 278 278 278 278 278 278 278 278 278 279 278 278 278
289 289 287 288 288 287 283 285 285 285 280 280 280 284 283 292 292 293 293 292 294 293 293 293 294 294 294 293 292 292 291 290 289 288 287 287 287 287 286 285 285 285 285 285 285 284 284 284 284 284 283 283 282 281 281 279 279 279 278 278 278 278 277 277 277 276 276 276 276 276 276 276 276 277 277 276 276 276 276 276 276 276 276 276 277 277 277 277 277 277 277 277 277 278 277 277 277
284 285 286 286 286 287 287 285 283 283 281 281 280 279 285 291 295 294 294 294 294 294 294 295 296 296 296 295 293 292 292 291 290 288 287 287 286 286 286 286 285 285 285 285 284 283 284 284 283 283 282 281 281 280 280 279 279 278 277 277 277 277 276 276 276 276 276 276 276 276 276 276 276 275 276 275 275 275 275 275 275 275 275 275 276 276 276 276 275 275 276 276 276 276 276 276 276
288 287 285 287 284 282 280 280 285 282 283 279 280 278 285 293 292 295 295 295 296 297 296 296 297 296 296 296 294 293 293 293 291 290 288 287 286 286 286 285 285 284 284 283 283 283 283 283 283 283 282 281 280 279 279 278 278 278 277 277 276 276 276 276 275 275 275 275 275 275 275 275 274 275 275 274 274 274 275 275 275 275 275 275 275 275 275 275 274 274 274 275 275 275 274 274 274
Wind_Speed
3 3 3 2 2 2 3 1 4 3 3 1 2 4 4 3 1 5 5 5 6 3 2 2 2 9 8 2 4 1 4 5 0 6 1 3 3 4 4 3 3 3 4 4 5 5 8 11 11 11 11 12 12 12 13 13 13 13 14 14 15 15 14 14 13 13 13 14 14 14 14 14 15 14 15 15 15 15 15 15 15 13 11 10 9 10 10 10 10 10 10 10 8 1 2 4 5
3 4 3 1 1 2 2 1 3 2 2 2 3 2 5 5 3 8 9 11 1 5 5 3 4 1 6 5 4 1 3 2 5 3 3 3 5 4 3 2 3 3 3 4 4 5 7 9 11 11 11 12 12 12 13 13 13 13 13 14 14 13 13 13 13 13 14 14 14 14 15 15 14 14 15 15 16 15 15 15 14 13 14 12 11 9 9 9 9 11 11 10 10 10 3 2 2
3 4 3 2 2 2 2 2 4 2 3 3 4 5 5 7 9 8 8 9 6 7 7 7 6 3 1 1 4 7 3 3 3 3 4 5 6 4 3 2 2 2 3 3 5 5 5 9 10 11 11 12 12 12 13 13 14 14 14 14 14 14 14 14 14 14 14 15 15 14 14 14 14 15 15 15 15 15 14 13 13 13 12 12 12 11 10 11 11 10 10 10 10 10 10 8 6
2 2 2 2 1 1 3 3 4 3 4 2 1 7 8 9 10 5 4 7 9 9 8 8 9 2 4 9 3 3 0 2 4 5 5 7 2 6 4 3 0 2 3 3 4 5 7 9 10 11 11 12 12 13 13 14 14 14 15 15 15 15 15 15 15 15 15 15 15 15 14 15 15 15 15 15 14 14 14 13 13 13 13 12 12 11 11 10 10 10 10 10 9 9 10 11 12
1 1 2 2 3 3 2 1 2 2 5 3 1 6 10 8 7 6 5 7 8 5 5 6 3 2 3 4 2 3 2 5 4 2 3 4 4 5 4 2 2 3 4 4 4 5 8 11 10 10 11 12 13 13 14 14 15 15 15 15 16 16 16 16 16 16 16 16 16 15 15 15 14 14 15 15 15 14 14 14 14 14 14 13 13 13 13 12 12 11 11 11 10 9 9 10 11
2 2 2 2 2 3 2 3 4 6 2 0 2 3 10 7 7 7 9 8 6 1 2 5 2 5 5 3 0 1 3 4 5 5 4 5 5 5 4 2 3 4 4 4 5 6 7 10 10 11 12 12 13 14 14 14 15 15 15 16 16 16 17 17 17 17 17 17 17 16 16 15 15 15 15 16 15 15 15 15 15 15 15 14 14 13 14 14 14 14 12 11 11 10 11 11 10
3 3 3 3 2 2 3 4 4 4 2 1 2 1 10 7 6 11 10 6 5 4 4 4 3 3 5 3 2 2 2 1 6 4 0 8 6 5 3 4 4 5 4 4 5 6 9 10 11 11 12 12 13 13 14 14 14 15 15 16 16 16 16 17 17 17 17 17 17 16 16 16 16 16 16 16 16 16 16 16 16 16 15 15 15 15 14 14 14 15 15 14 13 13 11 10 10
2 3 1 4 2 2 4 3 4 2 1 2 3 2 7 8 9 10 13 12 9 7 8 5 4 5 0 1 4 5 1 1 3 6 8 7 7 5 2 4 5 5 5 5 5 5 8 12 11 12 12 13 13 13 14 14 14 15 15 15 16 16 16 16 17 17 17 16 16 16 15 15 15 15 15 15 15 15 15 15 15 16 16 16 16 16 15 14 14 14 14 14 14 13 13 12 12
1 2 1 3 4 1 2 4 2 1 3 2 3 2 5 7 11 11 13 9 5 7 5 8 7 6 3 5 4 3 4 4 4 6 8 8 7 5 3 3 5 5 5 5 4 4 6 11 12 12 12 12 13 13 13 14 14 14 15 15 15 15 16 16 16 16 16 16 16 16 16 15 15 15 15 15 15 15 15 15 15 15 15 15 16 16 16 15 15 15 15 15 15 15 14 14 13
2 2 3 2 2 5 2 3 4 2 3 1 2 3 5 5 9 8 12 10 5 5 3 5 6 9 3 6 2 5 5 8 7 8 7 7 7 6 6 5 5 6 5 5 4 5 6 9 12 11 12 12 13 13 13 14 14 14 14 15 15 15 15 15 15 16 15 15 15 15 15 15 15 16 16 16 16 15 16 16 15 15 15 15 15 15 15 15 16 16 16 15 15 15 15 15 15
3 2 2 4 4 4 5 2 5 2 3 0 4 4 4 6 7 8 8 6 4 4 6 6 4 11 3 3 2 5 6 10 11 10 8 7 6 6 6 4 4 4 6 5 4 4 5 6 10 11 11 12 12 13 13 13 14 14 14 14 15 15 15 15 15 15 15 15 15 15 15 15 15 15 16 16 16 16 16 16 16 16 16 16 16 15 15 15 15 16 16 16 16 16 16 16 16
3 3 3 4 5 5 2 4 1 1 1 1 5 7 4 9 7 8 11 10 8 6 7 12 2 8 6 4 3 6 8 10 11 10 9 7 6 5 5 5 4 5 5 4 4 4 4 5 5 8 10 11 11 12 12 13 13 13 13 14 14 14 14 14 15 15 15 15 15 15 15 15 15 16 16 16 16 16 16 16 16 16 16 16 16 16 16 15 15 15 15 15 16 16 16 16 16
3 1 3 4 1 2 1 3 2 1 3 8 7 5 6 11 13 12 10 10 4 8 9 15 4 6 5 5 4 5 11 13 10 11 10 8 7 6 5 6 5 5 4 3 5 5 4 4 5 6 7 9 10 12 12 12 12 12 13 13 13 14 14 14 14 14 14 14 14 15 14 14 14 15 15 16 16 16 16 17 17 16 16 16 16 16 16 15 15 15 14 14 14 14 15 16 16
3 1 2 3 2 1 3 2 0 4 5 4 3 6 9 9 12 5 6 11 11 11 2 8 3 3 8 0 4 6 10 14 12 12 9 8 7 6 6 6 5 5 4 4 5 5 5 5 5 5 5 6 6 7 11 12 11 12 12 12 13 13 14 14 14 14 14 13 14 13 13 12 13 13 14 14 15 15 15 15 16 16 16 16 16 16 16 16 15 15 15 14 13 13 12 13 13
1 1 1 1 1 1 2 4 1 3 3 5 6 9 7 4 1 5 9 12 11 5 4 1 5 3 4 10 4 7 12 17 13 11 9 8 7 7 6 5 5 5 4 4 4 5 5 5 5 5 5 5 5 4 5 8 11 11 11 11 12 13 13 14 14 13 13 13 12 11 10 9 10 11 11 12 13 14 14 14 16 15 15 15 15 15 15 15 15 15 15 15 14 14 13 12 11
1 2 0 3 2 3 2 4 2 2 4 5 4 2 9 3 3 5 6 4 2 2 4 7 7 6 3 3 5 3 14 16 13 11 9 8 6 6 6 6 6 5 4 4 5 4 4 4 4 4 4 5 4 4 5 6 8 9 10 11 12 12 13 12 12 12 11 12 10 10 7 7 8 7 10 8 11 11 13 12 13 13 14 15 15 15 15 15 15 15 14 14 14 14 14 14 10
1 2 3 3 6 4 3 4 5 3 2 3 6 7 10 7 4 2 3 3 5 5 8 3 11 1 3 3 4 1 14 15 13 13 11 9 7 6 6 6 5 5 3 4 4 5 4 4 4 4 4 5 4 4 4 4 5 4 6 8 9 11 10 10 10 9 8 9 8 8 5 8 7 7 8 9 9 9 11 12 12 12 11 12 12 12 13 14 14 14 14 14 14 14 15 14 9
2 3 3 5 1 4 4 5 7 3 3 4 7 9 8 8 6 4 4 4 7 2 8 7 6 7 3 3 1 4 13 16 15 16 12 11 9 9 9 8 8 7 7 6 4 5 5 4 4 5 5 4 4 3 2 2 2 3 3 4 5 6 7 7 7 7 7 6 7 6 6 6 5 6 7 9 6 8 8 11 12 11 11 11 12 10 10 10 12 12 13 14 14 13 13 7 7
3 2 3 5 3 0 2 1 4 3 2 2 3 6 8 5 8 6 6 7 8 10 10 9 10 12 7 5 5 10 15 15 17 16 16 16 13 14 11 9 9 8 7 6 6 6 4 5 4 5 4 4 5 4 2 3 2 2 3 3 3 4 5 6 6 6 6 5 5 4 4 5 5 3 5 5 6 7 5 8 10 10 10 10 13 11 9 9 11 10 10 11 12 11 7 6 6
0 3 5 4 1 1 3 3 4 7 2 2 3 5 7 2 2 7 7 7 5 13 10 9 13 16 15 10 10 13 16 17 17 18 17 16 15 14 12 11 10 9 9 7 7 5 5 5 5 4 4 3 3 3 2 2 2 2 2 1 2 2 3 4 5 5 4 5 4 4 3 4 3 3 3 2 5 4 5 6 7 8 8 8 13 7 8 8 12 8 9 10 7 5 6 6 6
3 3 5 0 2 3 2 6 6 2 3 4 3 4 5 7 4 6 4 7 14 14 15 13 15 17 14 14 13 14 17 18 18 17 17 16 15 12 12 12 11 10 8 7 6 7 6 5 5 4 3 3 3 3 2 2 2 2 2 1 1 2 2 3 3 4 4 4 4 3 3 3 2 3 4 4 4 5 5 5 5 6 6 6 9 6 6 7 7 7 6 7 6 6 6 6 6
2 4 3 2 3 4 1 2 2 3 0 3 3 6 6 6 3 10 8 12 14 9 12 15 15 12 11 15 16 15 17 19 20 19 19 19 19 16 12 11 9 9 8 8 9 8 7 6 5 5 4 3 2 2 2 3 1 2 1 1 1 1 2 2 2 3 3 4 4 3 2 3 3 3 4 5 5 5 5 6 5 6 6 6 6 6 6 6 6 6 7 7 6 6 6 7 7
4 3 3 2 2 5 2 1 2 4 4 7 5 5 4 7 5 10 13 18 14 8 6 2 7 6 7 13 15 16 18 20 21 22 21 19 18 17 14 11 11 10 9 9 9 8 8 7 6 5 5 4 3 1 2 2 2 1 1 1 0 1 1 2 3 3 3 4 3 4 3 4 4 4 5 5 6 6 6 6 6 6 7 6 7 6 7 6 6 6 6 6 7 7 7 7 7
3 3 2 2 3 7 2 1 3 5 4 6 1 2 7 4 10 3 13 20 19 3 4 3 1 1 8 13 17 20 21 22 23 22 21 21 20 18 15 14 11 9 9 10 9 9 8 9 8 7 6 6 5 4 3 3 2 2 2 1 0 2 1 2 2 3 3 4 5 4 4 3 4 4 5 5 5 5 5 6 6 6 6 6 6 6 7 7 7 6 6 7 7 7 7 8 7
5 6 3 1 2 6 2 1 2 3 6 1 2 5 9 8 6 3 17 19 13 12 5 3 2 4 7 12 15 16 17 17 18 17 14 13 13 12 10 8 10 9 11 11 9 9 10 8 9 8 7 7 5 5 4 3 3 3 2 1 1 0 1 2 2 2 3 3 5 5 5 4 4 4 5 5 4 4 5 5 5 5 5 5 6 6 6 6 6 6 6 7 7 7 7 7 7
8 2 1 1 5 3 1 3 5 4 2 4 5 11 6 2 3 13 24 17 12 12 9 7 5 7 10 13 15 16 16 19 17 16 17 12 10 13 13 11 10 12 12 11 10 9 9 9 9 9 8 7 6 6 5 4 4 4 3 2 2 1 2 2 2 3 3 3 4 5 5 4 4 4 4 4 4 4 4 5 5 5 5 5 6 6 6 6 6 6 6 6 7 7 7 7 7
1 1 4 6 4 3 1 6 2 1 4 4 8 11 5 3 3 12 3 2 2 6 9 5 8 12 12 11 12 14 16 18 19 15 11 12 11 14 13 11 12 13 11 12 11 9 9 9 8 8 7 7 6 6 5 5 4 4 3 3 2 2 2 2 2 3 3 3 4 4 4 4 3 3 3 4 4 4 4 4 5 5 5 5 5 6 6 6 6 6 6 7 7 7 7 7 7
1 3 4 8 8 7 7 3 5 1 5 6 8 11 2 2 3 17 5 3 4 7 8 8 10 12 11 13 11 11 13 13 12 13 18 17 15 15 16 14 14 13 13 13 11 9 9 11 10 9 8 8 7 7 5 5 4 4 3 3 2 2 1 2 3 3 3 3 3 3 2 3 2 2 3 3 4 4 4 5 5 5 5 5 5 6 7 7 7 7 7 7 8 7 8 8 8
2 2 6 2 5 8 7 7 3 5 4 4 3 8 9 7 12 22 6 5 4 4 7 9 11 11 11 11 11 10 12 11 12 13 18 17 13 12 17 14 14 13 9 12 11 11 12 11 9 9 8 8 8 7 5 4 4 3 3 2 2 1 2 2 2 2 2 2 2 2 2 2 2 2 3 4 4 4 4 4 4 5 5 5 6 7 8 7 6 6 7 7 7 7 8 8 8
1 2 2 7 5 9 5 3 2 5 1 4 2 11 7 17 22 15 6 5 4 5 9 9 9 9 9 10 10 10 10 12 14 17 15 14 14 15 16 14 15 12 11 10 11 13 10 6 6 6 7 8 7 5 5 4 4 3 2 2 2 1 2 2 2 2 2 1 1 1 1 2 3 3 4 4 4 4 4 4 5 5 5 6 6 6 6 6 6 7 7 7 7 8 8 8 8
4 2 2 4 4 3 4 3 5 6 3 4 2 8 15 6 13 11 5 6 7 10 9 10 9 9 9 10 10 11 13 14 16 15 14 14 13 12 15 14 15 14 10 11 14 14 11 8 6 5 7 7 6 5 5 4 3 3 3 2 2 1 2 2 2 2 1 1 0 1 1 2 3 4 4 4 4 4 4 4 4 4 5 7 6 5 6 6 6 7 7 8 8 7 8 8 9
1 3 4 2 4 2 3 5 7 6 3 4 4 9 16 16 7 7 4 5 6 11 11 12 10 10 10 10 12 12 12 13 14 14 15 14 13 12 14 16 15 14 14 12 11 11 11 9 8 6 7 7 6 6 5 5 4 3 3 2 3 2 2 2 2 1 1 1 0 1 0 2 3 4 4 4 5 4 5 5 4 4 6 5 5 6 5 6 5 6 6 7 8 8 9 9 8
1 4 7 6 3 5 4 6 1 2 4 5 11 10 9 13 1 3 4 5 6 9 12 13 14 13 11 11 10 10 10 11 12 14 15 14 13 13 13 15 15 15 13 12 13 11 10 9 9 8 9 8 7 7 6 5 4 4 4 4 3 3 2 2 2 1 1 1 0 1 1 2 3 3 4 4 5 5 5 5 5 5 5 5 6 5 6 5 5 5 6 6 7 8 9 10 9
5 2 6 2 7 5 6 5 3 2 6 7 11 9 16 18 12 5 6 7 7 10 15 18 16 13 11 10 10 10 12 12 15 17 19 17 13 15 13 12 13 13 11 13 12 13 12 10 9 9 8 8 7 7 7 6 5 4 4 3 3 2 2 1 1 1 2 1 0 1 1 3 3 3 4 4 5 5 5 6 6 6 6 6 6 6 6 5 5 5 7 6 7 8 8 9 11
4 3 5 8 5 9 12 7 3 4 2 8 9 14 20 20 20 20 11 10 10 15 17 20 19 14 12 11 11 13 12 14 16 16 18 17 14 14 12 12 12 13 10 13 11 11 9 9 8 8 8 8 7 6 6 5 4 3 3 3 3 2 3 2 1 2 1 1 1 1 2 3 3 4 4 5 5 5 5 6 6 6 6 6 6 6 6 5 5 6 7 8 7 7 9 10 10
8 6 8 7 9 8 8 4 3 5 6 8 14 14 17 18 20 20 18 8 12 17 18 19 19 14 11 12 12 11 12 16 13 12 14 13 12 13 12 11 11 11 10 11 12 11 10 10 8 8 9 9 8 7 6 5 4 4 4 4 3 3 3 2 2 1 1 1 1 2 3 3 4 4 5 5 5 5 5 6 7 7 6 6 6 6 5 5 6 7 8 8 10 8 8 8 9
2 1 3 10 10 12 13 3 3 2 3 14 18 17 19 21 21 21 20 10 11 16 19 20 17 11 11 13 12 12 14 16 9 11 12 13 13 12 11 10 10 11 12 12 13 13 13 12 11 11 9 9 8 8 7 7 6 5 3 3 3 3 2 1 2 1 1 2 2 3 4 4 4 5 5 5 5 5 6 6 7 7 7 7 6 6 6 7 6 7 7 7 9 9 8 7 8
7 6 6 10 6 13 3 1 5 2 3 7 9 13 17 20 18 20 21 11 23 25 20 19 20 15 15 15 13 13 13 6 8 9 11 12 12 13 11 10 12 16 14 13 14 15 13 13 13 11 9 9 8 8 7 6 5 4 4 3 3 2 1 1 1 2 2 2 3 4 5 5 5 5 5 5 5 6 6 6 7 7 7 7 6 7 7 7 7 6 6 7 6 7 8 7 7
3 7 4 5 11 7 10 1 5 2 4 11 8 14 18 20 19 22 22 21 18 21 18 22 19 20 15 11 12 10 9 11 10 12 12 12 14 15 12 12 13 15 15 15 14 14 13 12 12 11 10 9 8 7 6 5 4 3 2 2 1 1 0 1 1 2 2 3 4 5 5 5 5 5 5 5 5 6 7 7 7 7 8 7 6 6 6 6 5 6 6 7 8 6 8 6 6
5 4 5 11 2 3 7 4 2 4 4 9 9 17 18 19 19 23 23 18 16 15 17 18 16 19 21 16 7 9 11 12 13 14 15 14 15 15 13 14 14 13 13 14 15 16 11 11 12 12 10 9 8 7 6 5 5 4 3 2 2 0 1 0 2 4 4 5 6 6 5 5 5 5 5 6 6 6 7 7 7 8 8 7 6 6 6 6 5 5 6 7 7 10 7 7 5
6 8 10 11 9 7 7 4 5 4 5 3 11 14 15 12 11 8 5 2 4 12 10 15 17 16 18 5 4 9 12 13 12 13 14 15 16 18 18 15 13 15 15 16 15 14 9 14 13 12 10 10 8 8 8 6 6 5 3 3 1 1 2 3 3 4 5 5 5 5 5 4 5 6 6 6 6 7 7 7 7 8 8 7 6 6 6 5 6 6 6 7 7 8 11 8 8
6 9 14 15 4 9 3 3 7 6 6 2 6 14 14 6 6 6 3 2 6 5 8 12 13 12 10 12 13 9 11 11 13 15 17 17 17 15 14 15 16 16 16 16 14 13 12 12 12 11 9 9 8 9 9 7 6 5 5 4 4 4 4 4 5 5 3 3 3 2 4 5 6 6 6 6 7 7 7 7 8 8 8 7 6 6 6 6 6 6 6 6 8 8 9 10 9
3 6 10 14 11 4 2 2 1 5 6 3 5 4 19 8 7 7 4 3 8 4 8 12 11 10 7 9 8 9 12 10 11 11 13 15 16 16 16 17 19 18 16 13 13 13 14 11 11 11 10 9 8 9 9 7 6 5 6 5 4 4 4 3 2 2 3 3 3 5 5 5 5 6 6 6 6 7 7 7 8 8 8 7 6 6 6 6 6 6 6 6 7 7 8 10 11
7 2 2 3 5 7 6 4 6 9 4 3 2 6 16 15 8 4 7 9 8 10 14 16 13 14 13 9 8 10 10 11 11 13 14 15 16 18 20 20 17 17 14 13 13 12 15 13 13 12 9 9 8 9 10 8 7 6 6 5 4 5 5 4 3 3 3 4 5 5 5 5 5 6 6 7 7 7 7 8 9 9 9 8 6 6 6 6 6 7 7 8 8 8 9 10 11
1 1 2 4 4 3 5 5 5 3 6 8 8 8 9 14 5 8 5 13 11 15 16 16 16 13 9 9 7 12 11 11 12 11 14 16 17 17 16 16 15 14 13 15 14 12 11 11 11 11 10 10 9 10 10 8 7 7 7 6 6 5 5 5 4 4 4 4 6 6 6 6 6 6 6 7 7 7 8 9 9 9 8 8 6 7 7 7 9 9 9 9 9 9 9 10 10
3 5 8 7 5 6 2 3 3 5 2 9 9 11 8 23 11 6 0 4 9 10 13 16 15 13 5 6 6 9 8 8 9 11 10 12 13 13 14 12 14 13 12 13 12 10 11 10 11 13 13 10 10 11 9 10 9 7 8 7 8 7 5 5 4 5 5 5 6 6 6 6 5 5 6 6 7 8 8 9 8 9 9 8 7 7 8 9 10 10 10 10 10 11 10 10 11
8 4 5 3 3 2 2 1 3 3 10 9 11 18 13 17 3 11 10 8 8 10 10 10 10 8 7 6 7 6 7 8 7 8 9 9 9 11 12 14 14 13 12 13 12 13 12 11 13 14 13 10 11 11 11 11 9 9 8 9 9 9 8 6 5 6 5 5 6 6 5 5 5 6 6 6 7 8 8 8 8 8 8 7 7 8 8 8 9 9 9 11 12 13 11 12 12
4 3 2 1 3 3 2 1 3 5 10 6 13 16 19 12 3 7 6 5 8 10 12 12 10 9 7 5 5 6 6 6 6 7 8 9 9 10 12 14 15 15 13 14 13 13 12 12 13 15 14 12 11 11 11 11 10 10 9 9 10 9 8 6 7 7 6 6 6 6 5 5 6 6 6 7 7 7 7 7 8 8 8 7 8 7 8 8 9 9 9 9 10 11 12 12 12
2 4 2 2 4 2 3 4 4 8 9 1 2 5 6 22 22 0 1 2 7 8 8 9 8 8 6 3 3 3 4 5 6 7 8 9 11 13 15 15 15 16 17 17 15 13 12 13 15 16 14 13 12 11 12 11 11 10 10 10 9 8 8 8 7 6 5 5 5 5 5 5 6 6 6 7 7 7 6 7 7 7 7 7 7 8 9 10 10 10 10 11 12 12 11 12 12
9 9 6 4 6 4 5 8 2 5 3 3 4 2 13 16 12 15 20 19 14 8 11 11 9 6 3 2 2 2 3 5 6 7 8 10 11 12 13 15 15 15 18 18 17 15 13 12 15 16 14 13 12 12 12 12 11 10 10 9 8 7 7 7 6 6 6 5 4 5 6 6 6 7 8 8 7 7 7 7 8 9 9 9 9 10 11 11 11 11 11 12 12 11 11 14 14
11 6 8 7 3 3 5 5 8 10 7 3 5 2 7 1 3 3 10 12 13 11 9 9 6 9 4 1 1 2 4 6 7 7 9 10 11 13 13 14 15 15 17 17 15 15 14 14 15 17 15 14 13 13 11 12 10 11 9 9 8 6 6 5 5 5 5 5 5 6 6 6 7 7 8 8 8 8 9 9 9 9 9 9 10 10 10 10 11 11 11 12 11 11 13 14 14
4 1 3 1 9 4 8 2 4 4 8 8 7 8 2 6 4 3 1 2 5 7 13 11 9 10 7 5 7 7 7 7 7 8 8 10 11 12 11 12 13 13 16 15 16 15 16 16 16 17 16 15 13 13 12 12 11 9 10 9 8 7 5 5 5 5 5 5 6 6 7 7 7 8 8 8 9 8 9 9 9 10 10 10 10 11 11 11 11 11 11 11 13 10 12 16 16
7 6 8 5 5 7 6 1 2 1 2 16 3 10 12 8 14 12 9 7 8 7 11 9 12 13 8 9 9 10 9 8 8 9 8 10 10 12 12 13 13 13 15 17 18 17 19 17 17 18 16 14 14 13 12 11 11 10 10 9 8 8 8 7 6 6 6 5 6 7 7 8 8 8 8 7 8 8 9 9 9 10 10 10 11 11 12 12 12 12 12 13 13 13 15 17 17
9 6 6 5 1 4 2 6 1 3 7 13 1 16 19 11 12 5 6 10 10 10 13 12 14 14 9 14 13 10 10 8 7 8 8 9 10 12 12 12 14 16 17 16 16 14 15 14 17 17 16 16 14 13 12 11 11 10 10 9 9 8 7 7 6 6 5 6 7 7 7 7 8 7 7 7 8 9 9 9 9 9 9 10 11 11 11 12 12 12 13 14 14 14 16 16 16
2 1 2 5 4 4 2 1 5 5 8 7 13 17 15 20 15 5 8 12 13 15 14 13 13 12 12 12 15 13 7 5 8 10 9 10 11 13 14 14 14 13 14 14 14 13 13 13 15 15 16 15 14 11 10 9 10 7 7 9 9 8 6 6 5 5 6 7 8 7 8 8 7 8 7 7 8 8 8 8 8 9 9 10 10 11 11 11 11 12 12 13 15 14 15 16 16
2 2 2 4 3 3 7 7 1 2 10 5 19 21 20 5 6 6 8 14 13 13 11 13 14 13 11 11 12 11 9 10 9 9 10 10 11 13 13 14 15 15 14 13 14 13 15 15 15 14 12 12 12 12 11 11 9 8 7 7 7 6 6 6 6 6 6 7 7 7 8 8 8 7 7 7 7 8 8 8 8 8 9 10 10 10 11 12 12 13 14 13 13 15 16 17 17
5 6 7 2 2 3 4 3 3 5 6 9 11 15 20 2 7 8 8 12 13 13 12 12 12 12 11 13 12 10 10 10 10 9 9 10 11 10 11 12 11 11 11 11 13 16 15 13 15 15 16 14 13 11 11 10 9 8 9 8 8 7 7 6 6 7 7 7 6 7 7 6 6 7 6 7 7 8 8 8 9 9 9 10 11 11 10 11 12 13 14 15 15 15 17 17 17
12 15 13 15 10 6 5 10 4 2 6 9 6 15 18 10 4 7 6 7 8 9 11 11 9 12 13 11 13 11 11 12 10 9 8 7 8 9 10 10 10 11 12 14 13 14 15 15 15 14 13 13 13 12 11 10 8 8 9 8 8 6 6 6 6 6 7 6 6 6 6 6 7 7 6 7 8 7 7 8 9 10 10 11 11 12 12 11 12 13 14 12 13 15 16 18 18
Wind_Direction
141 137 141 154 205 252 241 120 232 145 242 174 132 213 116 201 26 169 185 131 196 131 168 114 100 150 190 236 224 358 17 209 289 196 258 77 119 84 59 16 10 10 353 346 360 17 30 35 30 42 47 50 52 56 56 57 59 58 59 60 57 54 54 58 58 56 56 54 49 46 47 46 44 43 43 43 41 41 43 42 38 32 24 17 4 351 336 346 329 332 335 331 327 331 268 284 274
152 139 134 190 75 250 171 336 276 177 211 169 174 205 133 167 200 207 183 188 117 136 152 147 166 47 33 9 29 63 220 357 4 38 88 115 137 101 70 35 21 11 357 6 14 24 36 37 29 40 45 49 51 52 54 55 56 58 59 59 60 59 57 55 55 54 55 54 50 45 44 44 44 44 46 43 42 40 42 41 40 36 34 29 22 6 356 344 335 348 346 339 333 329 326 259 285
142 157 140 210 157 301 85 234 245 211 247 256 140 193 110 184 209 196 195 183 113 122 134 127 121 149 199 7 210 207 196 53 104 112 83 145 159 128 101 58 29 11 31 9 23 33 49 34 29 38 45 47 51 51 52 53 54 54 55 56 56 56 56 57 57 56 56 56 54 50 43 43 43 45 45 45 42 39 38 39 39 35 34 31 25 17 11 4 359 351 349 344 336 333 332 336 319
146 335 237 192 173 259 211 200 268 236 253 6 208 162 179 193 198 173 96 106 117 132 134 145 170 46 237 210 236 36 96 185 172 144 139 184 38 109 101 63 3 89 59 38 34 50 47 38 34 44 46 49 49 50 51 51 51 52 51 51 51 51 52 53 54 54 53 54 54 51 48 45 42 43 42 42 39 37 36 37 38 36 31 28 24 18 17 15 8 1 357 350 343 339 340 346 345
192 87 292 245 271 173 266 285 297 255 263 159 3 154 194 200 182 147 119 127 130 142 164 150 161 104 327 322 68 243 108 76 169 207 118 93 90 93 99 50 94 90 75 54 52 58 56 37 38 43 50 51 52 52 52 52 51 51 50 50 49 49 49 48 49 49 49 50 51 50 47 45 44 42 41 38 36 34 32 30 35 37 34 29 25 21 19 15 13 8 3 358 354 348 346 349 344
144 137 53 253 281 16 225 205 199 229 5 354 235 172 192 190 180 143 132 139 148 162 19 181 305 154 194 203 293 246 138 181 139 163 166 114 105 113 91 115 83 81 68 64 51 58 54 39 47 47 49 50 53 54 53 54 53 52 52 50 48 48 47 47 47 45 45 47 47 46 45 44 44 42 39 36 34 31 29 28 29 33 33 30 25 21 18 13 15 15 12 9 8 8 11 2 343
176 173 120 115 137 241 270 251 256 255 109 298 329 115 182 168 149 135 139 146 204 250 204 214 155 109 241 145 203 228 27 4 179 135 244 117 117 105 116 107 104 88 67 59 62 63 48 47 50 50 52 52 54 54 55 56 54 53 52 51 50 49 48 48 46 44 45 44 44 44 42 43 41 41 39 37 34 33 29 28 28 28 28 27 25 23 20 18 13 12 14 15 17 14 12 1 351
20 276 88 229 150 246 237 268 262 239 110 250 11 312 177 157 150 162 162 169 183 204 185 218 209 253 44 175 234 100 98 265 45 105 116 130 120 110 120 124 115 91 79 69 61 58 55 42 52 53 51 55 56 58 57 57 56 57 55 53 51 50 50 48 47 45 44 43 42 42 42 41 40 40 38 36 35 33 31 31 29 28 25 23 22 20 18 17 18 16 14 13 14 13 11 5 2
104 249 67 243 213 165 245 236 264 38 318 209 248 289 346 157 171 167 169 193 83 212 151 184 191 187 130 162 221 99 163 134 113 108 121 123 125 126 110 111 108 93 73 64 62 61 61 41 48 51 54 54 56 58 58 57 57 57 56 56 55 53 52 51 49 48 46 44 43 41 40 38 37 37 38 36 34 32 32 30 30 28 25 23 21 18 16 14 15 16 15 13 12 10 9 5 2
149 273 190 244 346 236 265 217 226 189 234 132 256 187 181 163 179 198 178 190 188 172 159 155 176 239 77 221 176 173 185 154 141 132 128 119 122 128 114 94 93 91 83 72 63 67 63 50 48 49 52 56 56 57 59 60 61 59 59 58 57 56 55 54 53 50 46 46 43 42 40 38 36 35 35 34 33 31 29 28 27 27 25 23 21 19 16 13 13 13 13 13 11 8 6 3 2
216 100 4 227 221 257 243 254 215 135 213 114 246 211 186 174 187 196 201 200 154 184 123 156 182 236 213 241 234 50 102 147 162 154 139 125 128 131 121 96 79 82 95 68 64 70 77 71 56 51 52 53 57 57 57 59 60 61 61 60 60 59 58 56 55 52 50 47 44 41 39 37 36 35 33 32 31 31 28 27 25 24 22 20 20 18 17 15 13 12 10 9 8 6 4 2 2
229 207 180 245 248 267 349 295 298 206 153 206 216 162 167 177 180 203 205 211 193 203 182 172 203 165 218 241 207 140 146 164 174 143 136 139 135 125 124 119 104 98 93 94 84 82 82 79 81 64 57 53 53 58 59 60 60 62 62 61 60 59 57 56 54 52 51 49 46 43 40 38 36 35 33 31 30 28 27 25 24 23 20 18 16 14 14 15 13 12 11 9 6 3 2 359 359
279 81 218 248 317 262 42 266 283 341 243 214 199 145 145 174 195 209 206 212 196 198 221 198 47 208 221 210 63 136 172 174 162 142 144 151 140 139 136 125 122 112 106 107 104 94 85 88 80 75 65 68 59 52 55 55 59 61 63 64 64 61 60 58 54 52 50 48 45 42 40 38 37 35 34 32 30 27 24 22 20 19 18 17 15 12 11 10 9 8 8 7 6 3 359 356 354
257 247 253 251 61 307 251 310 341 257 226 137 107 130 172 181 208 213 186 207 210 212 50 177 157 167 262 80 168 185 189 170 153 146 151 145 144 144 139 132 128 123 119 126 113 103 92 86 83 79 71 65 67 70 57 46 52 56 59 62 63 63 61 58 55 52 50 47 44 42 40 39 37 35 33 31 28 25 21 20 17 16 15 14 12 11 9 7 5 4 2 1 1 359 356 352 347
237 229 179 2 163 246 178 247 315 238 269 142 131 154 169 224 26 207 209 214 221 73 108 257 182 137 241 187 195 191 175 165 151 146 142 141 141 141 136 133 131 125 124 119 113 114 106 103 97 87 74 73 68 63 63 57 41 48 55 59 60 62 60 58 56 51 47 44 41 38 32 36 35 35 29 32 27 26 19 14 12 12 11 9 8 7 5 4 2 1 358 356 355 352 348 342 338
78 186 121 240 231 250 162 233 185 270 250 153 130 153 181 133 214 193 228 313 51 1 161 191 214 239 359 238 55 32 156 148 143 142 139 139 139 134 142 147 142 135 133 136 126 118 112 111 109 95 87 78 75 73 69 69 48 38 45 51 55 57 55 56 54 48 46 37 34 22 20 26 30 36 25 26 21 23 20 11 10 10 10 6 4 2 360 359 357 356 355 351 350 346 341 332 323
214 281 212 221 253 204 157 216 161 243 80 134 125 180 191 193 167 274 5 266 236 185 203 209 194 344 256 54 61 33 142 136 139 145 149 152 158 160 164 165 157 152 161 154 148 135 132 124 119 109 98 92 83 78 76 66 46 31 64 50 54 52 52 52 50 50 42 44 23 22 18 27 21 19 18 12 11 15 18 4 4 6 8 6 0 358 355 355 352 350 349 347 344 340 335 321 312
234 218 248 237 288 220 169 207 195 25 296 155 184 197 214 215 156 167 172 201 231 178 216 216 248 246 245 95 106 155 139 146 155 158 167 167 176 173 178 177 175 171 166 159 154 149 147 138 130 134 120 110 106 100 91 89 101 67 61 69 59 65 53 60 57 49 45 39 28 32 32 27 16 19 15 8 359 2 10 357 357 357 360 1 355 348 347 349 348 343 343 342 337 334 325 320 330
222 161 235 287 178 19 178 221 223 210 246 70 181 195 219 236 150 159 210 210 198 229 227 217 233 234 197 170 146 156 157 160 168 176 175 178 184 182 180 173 183 166 172 165 162 166 160 149 159 138 133 129 121 115 112 115 110 102 95 89 95 77 77 67 72 62 54 42 35 36 36 30 14 20 19 352 324 324 339 338 344 344 347 350 351 340 343 341 339 334 335 335 326 323 322 329 327
134 245 250 246 190 289 231 206 222 227 69 162 176 188 217 210 190 121 222 236 183 228 220 193 226 234 209 174 158 163 172 173 180 184 186 187 188 185 181 177 178 179 172 173 162 165 171 165 155 146 140 139 147 126 139 128 115 117 115 117 113 110 95 91 80 75 64 51 44 48 38 28 8 12 3 340 305 343 349 337 336 334 343 346 347 337 339 347 334 332 331 329 319 335 332 326 326
121 227 241 221 103 247 200 204 231 194 235 259 209 107 218 223 191 181 209 246 241 236 228 214 215 225 209 162 164 168 177 181 187 192 192 192 193 192 190 183 180 174 171 158 159 169 173 169 160 153 149 146 140 142 150 124 116 135 128 137 120 112 104 96 92 87 70 57 53 49 41 31 15 19 11 359 356 352 347 347 347 350 349 343 345 343 344 342 339 340 338 336 338 330 328 324 321
174 263 15 88 128 247 129 185 99 167 357 214 158 188 217 93 167 216 209 232 254 247 223 217 239 246 165 164 172 173 182 185 190 193 196 193 191 191 187 178 172 167 157 171 173 165 173 171 171 158 161 152 145 142 131 110 198 131 124 121 140 101 99 90 88 80 77 58 53 36 39 36 23 21 14 6 0 357 355 355 352 350 347 345 347 343 345 339 337 338 336 337 332 330 320 317 315
241 181 223 210 220 265 58 177 149 177 176 197 191 225 79 195 222 215 221 229 244 69 70 237 244 256 169 160 160 179 186 191 193 197 195 195 195 195 188 179 172 173 172 178 168 169 168 169 170 170 165 152 146 136 141 148 121 119 92 33 336 96 90 84 77 80 69 61 47 42 28 28 23 19 12 9 4 359 359 356 352 351 349 351 349 343 344 340 336 335 332 328 325 318 315 312 309
267 284 149 198 185 232 113 89 118 207 221 218 35 43 229 170 249 182 229 236 242 94 104 80 30 211 149 162 177 184 189 191 197 198 195 197 193 191 186 182 181 171 176 175 173 169 170 172 169 174 167 164 157 165 164 151 133 114 121 148 99 37 19 71 75 66 73 68 48 37 23 27 21 18 13 8 2 1 357 350 345 345 347 347 345 343 342 340 337 335 330 324 319 315 311 309 306
220 247 181 206 226 244 250 275 233 214 232 76 243 235 239 218 264 40 248 243 239 235 154 150 131 162 180 190 188 192 194 198 201 197 196 200 196 186 180 182 177 173 184 176 173 173 172 169 172 177 167 170 165 168 171 149 146 148 149 151 114 12 85 77 70 81 71 64 54 39 25 20 20 15 12 3 354 359 348 345 338 343 336 340 340 338 340 333 330 329 327 326 323 318 313 309 308
206 264 162 186 242 261 246 268 239 224 239 195 227 243 234 162 339 260 255 255 239 226 199 189 180 193 197 203 195 192 197 199 197 193 194 188 181 181 188 188 180 186 186 173 173 177 170 170 178 177 173 171 166 177 167 162 156 153 157 145 128 166 104 90 98 74 68 58 56 39 32 21 17 11 6 355 351 352 343 343 338 340 336 339 339 335 336 326 322 319 320 319 317 316 312 311 306
320 257 263 264 270 307 224 246 180 157 256 180 235 261 250 99 203 278 178 42 92 174 199 187 203 221 213 208 203 203 201 201 196 192 183 192 188 195 188 188 187 189 178 180 178 176 168 173 178 173 170 167 174 178 166 154 151 154 148 154 147 134 130 127 95 85 70 66 54 41 34 25 7 8 358 353 346 346 344 342 339 336 333 341 336 330 331 322 316 313 318 317 317 315 309 308 304
46 303 279 251 255 245 230 231 248 218 250 187 240 262 319 164 227 247 193 147 148 169 195 201 211 224 221 212 206 205 211 208 195 185 192 187 196 194 188 189 187 183 183 181 180 172 171 180 176 174 175 174 179 170 157 150 149 141 148 151 134 117 114 99 92 86 83 76 62 47 32 20 357 344 1 352 347 337 338 337 331 334 331 332 328 325 323 315 310 309 309 309 306 304 307 306 305
36 292 281 265 276 276 189 228 187 186 231 167 190 257 226 194 233 238 211 145 155 195 210 207 216 222 221 214 209 205 209 199 192 198 205 201 195 191 192 188 179 182 186 179 177 172 178 180 175 176 177 173 182 164 151 141 136 139 136 129 120 126 109 93 96 94 85 83 79 57 32 10 346 357 353 353 336 329 330 325 328 326 325 330 322 318 315 311 311 314 315 312 306 307 299 300 300
221 154 312 293 254 264 146 109 125 196 123 161 197 290 243 201 223 242 119 162 161 210 227 220 218 217 218 213 212 212 207 202 201 208 205 202 195 192 192 182 181 180 177 180 174 181 177 172 172 167 176 174 166 151 144 139 134 125 123 132 120 168 108 114 114 102 88 90 92 76 11 11 355 357 349 337 330 325 323 318 322 320 324 323 315 315 320 320 316 318 319 318 317 310 307 304 304
261 104 231 269 293 242 144 184 149 202 87 180 271 262 284 225 208 231 145 178 197 239 230 231 219 213 216 213 213 213 209 208 209 206 207 205 194 191 193 178 183 183 175 179 181 180 176 172 168 167 174 159 150 139 135 126 124 139 152 151 150 156 129 139 125 113 121 120 19 84 15 360 351 347 339 328 323 318 315 310 312 311 323 315 308 315 313 312 312 317 320 319 313 307 305 303 300
245 267 230 169 234 253 136 159 191 215 121 210 194 264 263 278 258 150 120 175 217 245 248 239 228 219 213 213 215 214 214 209 212 211 210 204 193 191 192 186 184 187 184 177 173 175 177 173 173 166 165 151 147 134 134 134 146 154 158 158 154 154 152 148 135 139 159 178 177 309 27 326 337 334 327 322 312 309 304 303 301 309 311 303 304 302 302 301 309 309 307 307 310 305 304 300 298
184 224 272 266 206 265 304 156 213 320 126 196 209 257 300 286 48 93 129 165 202 245 255 249 237 227 219 215 213 212 208 208 208 210 208 201 200 194 193 189 186 187 182 172 176 171 173 168 173 169 165 155 148 144 144 153 159 162 169 163 152 160 156 145 146 168 194 195 213 284 334 308 311 320 313 307 296 292 293 293 295 296 301 297 290 292 289 293 298 298 297 297 293 298 296 293 292
217 139 257 262 261 292 279 123 157 135 213 217 218 244 246 263 267 185 167 186 200 243 258 259 247 233 217 216 213 206 207 208 209 208 209 200 197 194 193 190 183 180 179 176 176 174 177 170 174 172 159 158 153 155 162 166 166 167 171 160 148 145 143 153 162 188 213 223 233 268 308 293 287 302 297 291 285 284 281 283 285 288 289 285 281 281 285 287 285 292 298 297 298 297 297 300 299
270 206 246 257 214 223 262 272 131 164 127 251 236 233 257 261 270 274 249 179 225 252 257 263 260 239 223 218 217 211 210 214 216 210 204 196 189 187 190 184 180 179 177 177 172 175 171 167 170 161 159 156 156 157 159 163 163 170 155 158 149 152 165 168 187 209 216 242 252 290 281 272 270 280 285 279 279 283 284 281 279 281 283 278 276 282 285 285 286 293 293 296 293 292 296 296 298
264 252 264 274 274 255 251 209 109 216 213 238 240 240 254 260 266 269 273 201 225 247 255 261 260 251 237 231 217 208 211 222 220 211 197 188 183 181 186 181 178 178 175 177 175 175 173 169 171 168 172 167 162 165 170 178 181 181 175 160 168 170 170 173 179 210 222 239 247 265 263 260 269 275 278 278 275 279 284 282 281 278 270 268 269 273 279 291 298 297 294 296 296 293 285 289 298
53 174 229 252 257 266 272 133 112 155 259 246 252 255 259 263 265 270 269 264 241 247 252 254 256 249 241 233 219 208 212 223 207 198 184 176 177 179 181 176 177 174 180 178 178 180 181 177 174 178 173 170 174 174 180 182 181 175 175 192 183 159 168 146 191 188 207 238 245 263 260 257 258 268 271 277 279 281 274 278 276 270 263 264 263 266 276 282 286 287 292 290 292 295 294 294 300
229 248 242 261 222 261 254 46 124 159 226 270 244 263 259 261 264 266 269 238 259 258 255 258 259 252 247 236 224 208 217 202 162 183 176 168 178 178 175 178 177 181 188 181 183 184 184 181 182 177 172 178 186 184 176 180 185 186 178 166 167 157 166 185 183 169 204 231 252 252 254 252 255 266 275 278 278 272 276 275 274 271 270 268 271 272 272 275 276 281 291 295 286 292 293 298 301
180 236 251 280 263 274 280 293 111 147 197 265 271 278 270 263 259 260 258 250 242 258 255 263 267 270 260 235 224 207 196 210 196 204 182 184 179 178 181 187 190 191 182 184 185 181 182 180 185 181 176 178 182 176 171 178 170 150 169 138 153 129 125 316 308 285 270 256 251 250 253 254 260 264 269 270 273 268 267 272 273 276 270 270 273 274 272 276 282 287 296 298 306 292 285 288 290
205 198 229 239 259 346 281 109 94 168 223 297 308 292 278 262 250 251 255 254 257 255 262 260 259 257 259 259 224 187 206 213 205 193 189 187 183 184 185 189 188 186 181 185 189 187 179 183 186 179 176 180 176 173 176 160 148 133 124 102 91 324 314 324 275 264 251 244 246 245 245 253 261 266 267 265 260 265 270 273 276 272 271 270 271 277 279 282 283 292 296 298 300 302 301 301 296
212 225 230 256 245 226 224 308 312 210 231 287 283 268 259 228 240 246 247 330 249 264 261 262 258 248 255 274 236 200 217 210 200 192 190 186 187 192 191 185 179 189 189 189 188 185 174 184 182 177 175 179 175 168 171 158 141 147 145 129 160 222 239 246 242 238 222 224 234 228 234 246 261 266 264 261 264 268 269 266 270 272 272 270 270 273 278 283 289 285 288 289 292 296 301 297 292
215 223 227 238 258 267 227 28 344 299 281 123 351 324 283 157 180 224 264 270 252 237 231 251 252 245 238 242 234 200 225 215 196 191 190 188 191 189 185 183 188 194 195 193 185 181 175 183 177 176 174 176 174 170 169 163 170 176 172 186 197 208 218 207 220 231 217 227 239 244 250 247 256 261 261 264 263 265 269 270 271 273 271 271 268 276 280 282 277 282 282 284 285 279 283 293 287
218 244 202 233 248 264 314 299 14 265 267 64 309 352 291 129 184 183 196 216 264 236 217 242 256 262 203 227 199 195 218 208 209 202 187 187 190 186 187 189 194 194 197 181 177 181 183 179 173 175 176 174 169 166 165 167 170 181 190 200 219 228 238 233 245 266 259 266 276 273 271 263 255 267 271 271 269 270 274 277 274 271 272 271 273 273 278 281 285 281 282 275 280 283 278 279 281
234 64 127 136 203 218 220 216 230 270 52 268 168 237 278 283 209 157 196 227 238 265 271 272 261 246 247 228 191 206 213 201 194 200 194 190 187 189 192 195 192 196 183 174 178 182 184 181 178 178 174 171 162 165 167 173 174 178 182 194 210 226 231 241 233 255 268 275 271 274 282 279 275 271 277 278 275 278 277 275 269 265 266 268 273 272 279 282 283 278 270 272 271 266 268 268 281
263 66 23 103 120 163 152 208 251 297 337 284 184 206 270 260 176 200 221 237 241 254 257 259 259 256 235 244 204 212 213 202 194 191 195 191 191 194 194 192 193 184 179 179 183 183 179 179 178 174 176 174 166 166 166 172 178 178 182 192 209 221 230 239 239 241 257 260 270 273 274 280 280 273 266 270 268 269 264 263 263 263 264 268 269 273 271 274 271 271 270 269 265 267 265 270 273
91 126 85 85 84 73 177 220 250 259 270 255 182 174 244 279 146 159 21 204 236 241 246 248 250 255 233 238 224 214 206 202 202 205 196 195 195 193 192 183 180 186 180 179 180 173 179 177 179 177 179 176 163 166 166 167 173 172 185 195 204 213 217 225 227 235 237 247 259 264 267 271 273 276 268 264 266 262 260 261 262 263 265 268 268 269 271 267 266 263 261 260 262 263 264 262 260
128 165 109 84 82 129 104 84 254 286 242 233 197 184 203 279 172 154 157 189 195 224 241 256 264 269 249 228 216 197 194 192 191 197 197 195 189 184 178 184 185 181 181 181 182 183 183 179 181 181 179 169 165 168 168 169 172 179 189 194 199 211 216 223 230 230 231 236 251 257 261 269 276 278 285 280 270 264 261 261 262 264 271 269 267 268 266 267 267 267 265 263 260 259 261 260 260
169 148 172 221 198 141 166 191 186 237 266 145 195 193 196 235 263 145 144 97 193 209 233 241 250 251 245 191 197 190 180 180 179 186 190 179 177 184 183 191 185 182 179 186 189 185 184 183 179 180 176 171 167 167 170 171 174 183 192 193 201 207 209 212 221 230 231 242 252 266 272 277 278 278 276 273 266 260 264 269 269 268 269 269 266 268 269 268 270 269 266 263 263 260 260 260 262
203 157 154 229 265 2 237 150 222 197 248 131 71 141 249 234 246 12 78 262 232 233 245 258 248 244 233 178 161 155 162 165 183 187 180 185 189 187 188 189 180 183 189 188 188 185 183 185 182 179 177 171 168 165 172 172 176 183 189 195 202 203 209 214 222 231 234 241 248 254 264 269 275 272 265 266 266 265 271 273 273 272 277 275 275 274 272 269 272 268 266 264 263 264 264 263 264
184 188 184 199 254 225 261 251 180 289 224 126 109 115 247 268 286 237 246 239 233 206 232 249 264 272 285 93 118 143 171 186 198 191 187 188 189 188 188 188 186 187 188 187 186 182 181 183 183 184 175 169 166 169 173 174 181 185 189 194 199 199 205 210 220 227 232 238 246 254 257 262 268 268 274 271 277 280 275 273 274 274 274 275 275 274 272 272 271 269 267 266 266 267 267 266 264
196 178 178 223 187 205 256 269 273 278 303 138 227 94 243 51 199 216 220 230 234 218 227 238 238 258 256 80 310 244 217 207 205 200 196 193 193 189 187 189 189 191 188 185 184 183 179 182 183 182 168 172 169 171 172 177 181 186 188 194 195 197 201 206 216 226 230 236 244 251 256 258 260 266 270 277 283 282 281 281 278 280 280 279 279 277 276 274 271 271 269 269 268 265 267 269 268
150 150 30 272 229 168 248 310 297 315 317 291 155 220 254 229 87 196 152 27 241 225 231 224 236 235 217 231 232 230 218 210 203 210 206 203 196 191 190 192 194 191 189 188 186 181 182 184 180 180 171 169 171 172 175 178 180 182 186 187 191 193 199 206 218 218 227 231 241 249 255 255 258 264 268 273 276 277 280 281 281 279 282 280 280 278 277 275 274 273 273 271 270 268 269 268 268
161 148 207 200 16 191 257 323 136 90 239 264 162 260 254 261 247 174 215 167 220 220 238 230 238 240 179 230 236 223 215 207 202 210 207 197 193 197 196 194 191 190 189 192 190 186 183 175 175 177 169 168 173 174 173 177 176 176 182 182 185 191 199 206 211 219 225 235 242 247 250 254 261 263 266 269 274 275 277 279 283 284 282 284 281 278 277 277 278 276 274 274 272 273 273 270 271
110 224 196 103 13 2 176 251 244 238 250 272 353 270 291 280 289 99 170 205 221 218 227 217 231 244 226 231 236 228 218 206 205 215 211 199 198 198 198 200 198 196 193 190 188 182 181 176 176 171 167 170 172 170 172 173 171 174 175 180 187 192 196 205 215 223 229 234 238 241 247 252 253 261 268 271 274 276 280 281 282 285 286 285 282 280 279 278 278 275 274 275 274 274 272 267 266
306 349 316 192 187 188 151 69 249 246 239 270 272 279 275 257 259 135 158 195 216 229 224 213 235 232 227 237 243 240 221 209 214 215 207 201 201 201 201 200 197 197 192 188 182 171 172 173 177 173 171 168 164 166 168 167 168 168 173 179 184 186 193 200 211 220 228 235 239 244 250 257 266 265 265 270 277 283 286 288 287 286 288 287 284 281 282 281 277 276 274 277 275 269 267 264 264
100 243 182 355 320 185 165 202 258 225 269 298 279 288 270 226 206 207 205 194 207 213 213 217 222 220 214 225 235 232 212 216 215 208 206 204 203 203 200 196 193 191 184 180 172 169 178 175 172 171 162 160 162 165 162 163 166 166 166 169 178 182 187 199 208 216 228 235 243 249 256 261 263 270 272 278 281 284 288 290 288 287 286 287 284 282 283 283 281 280 281 275 273 270 268 267 268
188 205 197 163 200 359 347 338 207 217 246 239 269 281 276 294 141 147 206 198 208 204 208 217 219 221 221 220 228 227 224 225 217 206 205 202 200 198 198 195 191 184 181 175 175 179 178 174 174 169 165 164 164 162 161 162 160 168 169 175 177 177 189 198 208 221 232 241 247 250 256 264 276 272 279 283 283 284 286 284 285 284 285 285 284 283 282 282 280 280 278 277 277 273 270 270 271
174 180 193 184 161 187 190 245 115 226 215 237 221 251 267 270 95 148 195 208 205 204 211 218 213 219 225 231 230 223 219 224 218 213 202 195 190 191 190 186 177 174 178 179 177 174 177 176 175 167 163 164 163 163 166 158 160 168 172 176 177 178 187 198 208 219 232 238 247 252 258 270 269 276 281 282 281 282 279 283 286 285 284 284 284 285 285 282 280 281 282 283 282 278 274 273 273